| time (UTC) | temp C | wind direction | speed KPH | gust KPH | rain 1hr cm | rain 24hr cm | rain mn cm | humidity % | barometer mb |
| 20260504035547 | 21 | 204 | 14.5 | 24.1 | 0.00 | 0.00 | 0.00 | 38 | 1015.0 |
| 20260504035044 | 21 | 185 | 14.5 | 24.1 | 0.00 | 0.00 | 0.00 | 38 | 1014.8 |
| 20260504034555 | 21 | 191 | 12.9 | 19.3 | 0.00 | 0.00 | 0.00 | 38 | 1014.8 |
| 20260504034040 | 21 | 205 | 12.9 | 27.4 | 0.00 | 0.00 | 0.00 | 38 | 1015.0 |
| 20260504033541 | 21 | 213 | 12.9 | 27.4 | 0.00 | 0.00 | 0.00 | 37 | 1015.0 |
| 20260504033103 | 21 | 206 | 12.9 | 27.4 | 0.00 | 0.00 | 0.00 | 37 | 1015.0 |
| 20260504032541 | 21 | 213 | 14.5 | 25.7 | 0.00 | 0.00 | 0.00 | 37 | 1014.8 |
| 20260504032040 | 21 | 177 | 12.9 | 25.7 | 0.00 | 0.00 | 0.00 | 37 | 1014.7 |
| 20260504031541 | 21 | 196 | 14.5 | 20.9 | 0.00 | 0.00 | 0.00 | 37 | 1014.7 |
| 20260504031040 | 21 | 194 | 11.3 | 20.9 | 0.00 | 0.00 | 0.00 | 37 | 1014.8 |
| 20260504030539 | 21 | 196 | 11.3 | 19.3 | 0.00 | 0.00 | 0.00 | 37 | 1015.0 |
| 20260504030140 | 21 | 198 | 9.7 | 17.7 | 0.00 | 0.00 | 0.00 | 37 | 1015.0 |
| 20260504025538 | 21 | 205 | 11.3 | 17.7 | 0.00 | 0.00 | 0.00 | 36 | 1015.0 |
| 20260504025038 | 21 | 186 | 6.4 | 20.9 | 0.00 | 0.00 | 0.00 | 36 | 1015.0 |
| 20260504024539 | 21 | 174 | 6.4 | 20.9 | 0.00 | 0.00 | 0.00 | 36 | 1015.1 |
| 20260504024037 | 21 | 181 | 8.0 | 20.9 | 0.00 | 0.00 | 0.00 | 36 | 1015.2 |
| 20260504023538 | 21 | 193 | 11.3 | 20.9 | 0.00 | 0.00 | 0.00 | 36 | 1015.2 |
| 20260504023051 | 21 | 181 | 12.9 | 20.9 | 0.00 | 0.00 | 0.00 | 36 | 1014.9 |
| 20260504022537 | 21 | 196 | 11.3 | 25.7 | 0.00 | 0.00 | 0.00 | 36 | 1014.9 |
| 20260504022036 | 21 | 208 | 12.9 | 25.7 | 0.00 | 0.00 | 0.00 | 36 | 1015.0 |
| 20260504021537 | 21 | 182 | 12.9 | 25.7 | 0.00 | 0.00 | 0.00 | 35 | 1014.8 |
| 20260504021037 | 22 | 198 | 16.1 | 25.7 | 0.00 | 0.00 | 0.00 | 35 | 1014.7 |
| 20260504020537 | 22 | 189 | 16.1 | 22.5 | 0.00 | 0.00 | 0.00 | 34 | 1014.5 |
| 20260504015537 | 22 | 198 | 14.5 | 22.5 | 0.00 | 0.00 | 0.00 | 34 | 1014.7 |
| 20260504015038 | 22 | 194 | 12.9 | 22.5 | 0.00 | 0.00 | 0.00 | 33 | 1014.6 |
| 20260504014546 | 22 | 193 | 12.9 | 24.1 | 0.00 | 0.00 | 0.00 | 34 | 1014.5 |
| 20260504014035 | 22 | 193 | 14.5 | 22.5 | 0.00 | 0.00 | 0.00 | 33 | 1014.4 |
| 20260504013535 | 22 | 194 | 14.5 | 22.5 | 0.00 | 0.00 | 0.00 | 33 | 1014.4 |
| 20260504013043 | 22 | 198 | 14.5 | 20.9 | 0.00 | 0.00 | 0.00 | 33 | 1014.4 |
| 20260504012534 | 22 | 183 | 9.7 | 19.3 | 0.00 | 0.00 | 0.00 | 33 | 1014.5 |
| 20260504012033 | 22 | 184 | 12.9 | 25.7 | 0.00 | 0.00 | 0.00 | 33 | 1014.7 |
| 20260504011533 | 22 | 202 | 12.9 | 22.5 | 0.00 | 0.00 | 0.00 | 32 | 1014.6 |
| 20260504011032 | 22 | 210 | 14.5 | 24.1 | 0.00 | 0.00 | 0.00 | 32 | 1014.8 |
| 20260504010531 | 22 | 191 | 12.9 | 25.7 | 0.00 | 0.00 | 0.00 | 32 | 1014.7 |
| 20260504005531 | 22 | 189 | 14.5 | 29.0 | 0.00 | 0.00 | 0.00 | 32 | 1014.9 |
| 20260504005031 | 23 | 204 | 14.5 | 22.5 | 0.00 | 0.00 | 0.00 | 32 | 1014.8 |
| 20260504004535 | 23 | 191 | 14.5 | 24.1 | 0.00 | 0.00 | 0.00 | 31 | 1014.9 |
| 20260504004030 | 23 | 203 | 17.7 | 24.1 | 0.00 | 0.00 | 0.00 | 30 | 1015.0 |
| 20260504003531 | 23 | 212 | 14.5 | 22.5 | 0.00 | 0.00 | 0.00 | 31 | 1015.0 |
| 20260504003034 | 23 | 176 | 14.5 | 22.5 | 0.00 | 0.00 | 0.00 | 31 | 1014.9 |
| 20260504002529 | 23 | 166 | 16.1 | 25.7 | 0.00 | 0.00 | 0.00 | 30 | 1014.9 |
| 20260504002031 | 23 | 194 | 14.5 | 25.7 | 0.00 | 0.00 | 0.00 | 30 | 1014.9 |
| 20260504001530 | 23 | 179 | 17.7 | 25.7 | 0.00 | 0.00 | 0.00 | 30 | 1014.9 |
| 20260504001030 | 23 | 192 | 14.5 | 30.6 | 0.00 | 0.00 | 0.00 | 29 | 1014.9 |
| 20260504000527 | 23 | 193 | 16.1 | 30.6 | 0.00 | 0.00 | 0.00 | 29 | 1015.0 |
| 20260503235528 | 24 | 191 | 14.5 | 29.0 | 0.00 | 0.00 | 0.00 | 28 | 1015.3 |
| 20260503235028 | 24 | 232 | 16.1 | 29.0 | 0.00 | 0.00 | 0.00 | 27 | 1015.1 |
| 20260503234628 | 24 | 188 | 16.1 | 22.5 | 0.00 | 0.00 | 0.00 | 26 | 1015.2 |
| 20260503234027 | 25 | 196 | 8.0 | 22.5 | 0.00 | 0.00 | 0.00 | 27 | 1015.4 |
| 20260503233529 | 25 | 206 | 14.5 | 22.5 | 0.00 | 0.00 | 0.00 | 26 | 1015.4 |
| 20260503233027 | 25 | 204 | 14.5 | 22.5 | 0.00 | 0.00 | 0.00 | 26 | 1015.5 |
| 20260503232527 | 25 | 204 | 14.5 | 27.4 | 0.00 | 0.00 | 0.00 | 26 | 1015.4 |
| 20260503232026 | 25 | 189 | 12.9 | 20.9 | 0.00 | 0.00 | 0.00 | 26 | 1015.4 |
| 20260503231530 | 25 | 231 | 12.9 | 22.5 | 0.00 | 0.00 | 0.00 | 25 | 1015.4 |
| 20260503231026 | 25 | 221 | 14.5 | 24.1 | 0.00 | 0.00 | 0.00 | 25 | 1015.3 |
| 20260503230526 | 25 | 202 | 17.7 | 25.7 | 0.00 | 0.00 | 0.00 | 24 | 1015.3 |
| 20260503225525 | 25 | 216 | 12.9 | 25.7 | 0.00 | 0.00 | 0.00 | 24 | 1015.2 |
| 20260503225024 | 25 | 189 | 14.5 | 25.7 | 0.00 | 0.00 | 0.00 | 24 | 1015.3 |
| 20260503224523 | 25 | 193 | 11.3 | 24.1 | 0.00 | 0.00 | 0.00 | 24 | 1015.3 |
| 20260503224023 | 25 | 185 | 11.3 | 24.1 | 0.00 | 0.00 | 0.00 | 25 | 1015.5 |
| 20260503223526 | 25 | 209 | 14.5 | 27.4 | 0.00 | 0.00 | 0.00 | 24 | 1015.4 |
| 20260503223024 | 25 | 197 | 16.1 | 27.4 | 0.00 | 0.00 | 0.00 | 24 | 1015.3 |
| 20260503222522 | 25 | 204 | 14.5 | 25.7 | 0.00 | 0.00 | 0.00 | 24 | 1015.3 |
| 20260503222021 | 25 | 193 | 12.9 | 25.7 | 0.00 | 0.00 | 0.00 | 24 | 1015.5 |
| 20260503221520 | 25 | 228 | 11.3 | 27.4 | 0.00 | 0.00 | 0.00 | 22 | 1015.7 |
| 20260503221020 | 25 | 216 | 14.5 | 27.4 | 0.00 | 0.00 | 0.00 | 23 | 1015.7 |
| 20260503220521 | 25 | 227 | 12.9 | 22.5 | 0.00 | 0.00 | 0.00 | 24 | 1015.7 |
| 20260503220119 | 25 | 227 | 12.9 | 22.5 | 0.00 | 0.00 | 0.00 | 24 | 1016.0 |
| 20260503215520 | 25 | 151 | 11.3 | 20.9 | 0.00 | 0.00 | 0.00 | 23 | 1016.1 |
| 20260503215019 | 25 | 181 | 12.9 | 27.4 | 0.00 | 0.00 | 0.00 | 23 | 1016.4 |
| 20260503214519 | 25 | 187 | 14.5 | 27.4 | 0.00 | 0.00 | 0.00 | 24 | 1016.4 |
| 20260503214023 | 25 | 212 | 12.9 | 27.4 | 0.00 | 0.00 | 0.00 | 23 | 1016.3 |
| 20260503213519 | 25 | 196 | 19.3 | 27.4 | 0.00 | 0.00 | 0.00 | 22 | 1016.5 |
| 20260503213017 | 25 | 196 | 9.7 | 27.4 | 0.00 | 0.00 | 0.00 | 23 | 1016.5 |
| 20260503212517 | 25 | 207 | 17.7 | 27.4 | 0.00 | 0.00 | 0.00 | 23 | 1016.6 |
| 20260503212015 | 25 | 202 | 14.5 | 24.1 | 0.00 | 0.00 | 0.00 | 23 | 1016.7 |
| 20260503211514 | 24 | 228 | 9.7 | 24.1 | 0.00 | 0.00 | 0.00 | 24 | 1016.7 |
| 20260503211013 | 24 | 141 | 11.3 | 24.1 | 0.00 | 0.00 | 0.00 | 24 | 1016.9 |
| 20260503210517 | 24 | 185 | 14.5 | 25.7 | 0.00 | 0.00 | 0.00 | 25 | 1017.0 |
| 20260503205511 | 24 | 212 | 14.5 | 29.0 | 0.00 | 0.00 | 0.00 | 25 | 1017.1 |
| 20260503205009 | 23 | 220 | 17.7 | 29.0 | 0.00 | 0.00 | 0.00 | 25 | 1017.2 |
| 20260503204509 | 23 | 204 | 12.9 | 29.0 | 0.00 | 0.00 | 0.00 | 25 | 1017.4 |
| 20260503204007 | 24 | 159 | 17.7 | 29.0 | 0.00 | 0.00 | 0.00 | 24 | 1017.4 |
| 20260503203510 | 24 | 213 | 14.5 | 27.4 | 0.00 | 0.00 | 0.00 | 25 | 1017.6 |
| 20260503203009 | 24 | 195 | 14.5 | 24.1 | 0.00 | 0.00 | 0.00 | 25 | 1017.6 |
| 20260503202506 | 24 | 206 | 16.1 | 30.6 | 0.00 | 0.00 | 0.00 | 25 | 1017.7 |
| 20260503202005 | 24 | 187 | 17.7 | 30.6 | 0.00 | 0.00 | 0.00 | 24 | 1017.7 |
| 20260503201505 | 24 | 202 | 17.7 | 27.4 | 0.00 | 0.00 | 0.00 | 24 | 1017.8 |
| 20260503201007 | 24 | 200 | 12.9 | 24.1 | 0.00 | 0.00 | 0.00 | 25 | 1017.9 |
| 20260503200502 | 23 | 187 | 12.9 | 22.5 | 0.00 | 0.00 | 0.00 | 26 | 1018.1 |
| 20260503195501 | 23 | 196 | 14.5 | 30.6 | 0.00 | 0.00 | 0.00 | 26 | 1018.4 |
| 20260503195100 | 23 | 208 | 14.5 | 30.6 | 0.00 | 0.00 | 0.00 | 26 | 1018.6 |
| 20260503194601 | 23 | 171 | 16.1 | 24.1 | 0.00 | 0.00 | 0.00 | 26 | 1018.6 |
| 20260503194100 | 23 | 193 | 14.5 | 25.7 | 0.00 | 0.00 | 0.00 | 26 | 1018.9 |
| 20260503194002 | 23 | 177 | 14.5 | 25.7 | 0.00 | 0.00 | 0.00 | 26 | 1018.9 |
| 20260503193558 | 23 | 170 | 17.7 | 29.0 | 0.00 | 0.00 | 0.00 | 26 | 1018.9 |
| 20260503193101 | 23 | 168 | 14.5 | 29.0 | 0.00 | 0.00 | 0.00 | 26 | 1019.0 |
| 20260503192555 | 23 | 202 | 12.9 | 27.4 | 0.00 | 0.00 | 0.00 | 27 | 1019.0 |
| 20260503192054 | 23 | 173 | 12.9 | 27.4 | 0.00 | 0.00 | 0.00 | 27 | 1019.0 |
| 20260503191615 | 23 | 184 | 17.7 | 25.7 | 0.00 | 0.00 | 0.00 | 27 | 1019.3 |
| 20260503191053 | 23 | 197 | 14.5 | 29.0 | 0.00 | 0.00 | 0.00 | 28 | 1019.2 |
| 20260503190552 | 23 | 144 | 16.1 | 29.0 | 0.00 | 0.00 | 0.00 | 27 | 1019.3 |
| 20260503190053 | 23 | 198 | 19.3 | 32.2 | 0.00 | 0.00 | 0.00 | 27 | 1019.5 |
| 20260503185556 | 23 | 216 | 19.3 | 29.0 | 0.00 | 0.00 | 0.00 | 27 | 1019.4 |
| 20260503185053 | 23 | 189 | 12.9 | 27.4 | 0.00 | 0.00 | 0.00 | 27 | 1019.6 |
| 20260503184557 | 23 | 196 | 17.7 | 27.4 | 0.00 | 0.00 | 0.00 | 27 | 1019.8 |
| 20260503184054 | 23 | 202 | 16.1 | 29.0 | 0.00 | 0.00 | 0.00 | 27 | 1019.8 |
| 20260503183550 | 23 | 187 | 17.7 | 29.0 | 0.00 | 0.00 | 0.00 | 27 | 1019.8 |
| 20260503183105 | 22 | 185 | 14.5 | 27.4 | 0.00 | 0.00 | 0.00 | 28 | 1019.9 |
| 20260503182547 | 22 | 164 | 14.5 | 25.7 | 0.00 | 0.00 | 0.00 | 28 | 1020.2 |
| 20260503182045 | 22 | 220 | 17.7 | 25.7 | 0.00 | 0.00 | 0.00 | 28 | 1020.4 |
| 20260503181545 | 22 | 219 | 14.5 | 27.4 | 0.00 | 0.00 | 0.00 | 28 | 1020.5 |
| 20260503181144 | 22 | 202 | 17.7 | 27.4 | 0.00 | 0.00 | 0.00 | 29 | 1020.6 |
| 20260503180546 | 22 | 187 | 20.9 | 30.6 | 0.00 | 0.00 | 0.00 | 29 | 1020.7 |
| 20260503180046 | 22 | 187 | 20.9 | 30.6 | 0.00 | 0.00 | 0.00 | 29 | 1020.7 |
| 20260503175541 | 22 | 208 | 19.3 | 29.0 | 0.00 | 0.00 | 0.00 | 29 | 1020.7 |
| 20260503175043 | 22 | 217 | 14.5 | 29.0 | 0.00 | 0.00 | 0.00 | 31 | 1020.8 |
| 20260503174540 | 22 | 191 | 17.7 | 29.0 | 0.00 | 0.00 | 0.00 | 31 | 1020.8 |
| 20260503174041 | 22 | 196 | 12.9 | 22.5 | 0.00 | 0.00 | 0.00 | 31 | 1020.9 |
| 20260503173539 | 22 | 180 | 14.5 | 32.2 | 0.00 | 0.00 | 0.00 | 30 | 1021.1 |
| 20260503173105 | 22 | 228 | 17.7 | 32.2 | 0.00 | 0.00 | 0.00 | 31 | 1021.0 |
| 20260503172536 | 21 | 177 | 20.9 | 29.0 | 0.00 | 0.00 | 0.00 | 31 | 1021.1 |
| 20260503172036 | 21 | 245 | 19.3 | 27.4 | 0.00 | 0.00 | 0.00 | 31 | 1021.2 |
| 20260503171535 | 21 | 229 | 16.1 | 27.4 | 0.00 | 0.00 | 0.00 | 33 | 1021.5 |
| 20260503171035 | 21 | 194 | 17.7 | 27.4 | 0.00 | 0.00 | 0.00 | 31 | 1021.4 |
| 20260503170535 | 21 | 191 | 14.5 | 29.0 | 0.00 | 0.00 | 0.00 | 34 | 1021.5 |
| 20260503160128 | 20 | 198 | 14.5 | 22.5 | 0.00 | 0.00 | 0.00 | 37 | 1022.5 |
| 20260503150518 | 17 | 187 | 14.5 | 24.1 | 0.00 | 0.00 | 0.00 | 45 | 1022.9 |
| 20260503150116 | 17 | 212 | 12.9 | 24.1 | 0.00 | 0.00 | 0.00 | 46 | 1023.0 |
| 20260503131057 | 13 | 159 | 3.2 | 6.4 | 0.00 | 0.00 | 0.00 | 59 | 1022.8 |
| 20260503130556 | 13 | 188 | 1.6 | 6.4 | 0.00 | 0.00 | 0.00 | 59 | 1022.8 |
| 20260503120103 | 12 | 175 | 1.6 | 4.8 | 0.00 | 0.00 | 0.00 | 60 | 1021.9 |
| 20260503110546 | 12 | 192 | 0.0 | 3.2 | 0.00 | 0.00 | 0.00 | 58 | 1021.5 |
| 20260503081537 | 13 | 192 | 0.0 | 0.0 | 0.00 | 0.00 | 0.00 | 56 | 1021.8 |
| 20260503081037 | 13 | 192 | 0.0 | 0.0 | 0.00 | 0.00 | 0.00 | 56 | 1021.9 |
| 20260503080540 | 13 | 192 | 0.0 | 0.0 | 0.00 | 0.00 | 0.00 | 57 | 1021.8 |
| 20260503072536 | 14 | 192 | 0.0 | 1.6 | 0.00 | 0.00 | 0.00 | 53 | 1022.1 |
| 20260503072037 | 14 | 192 | 0.0 | 3.2 | 0.00 | 0.00 | 0.00 | 53 | 1022.0 |
| 20260503071539 | 15 | 193 | 1.6 | 4.8 | 0.00 | 0.00 | 0.00 | 53 | 1022.0 |
| 20260503071035 | 15 | 193 | 0.0 | 3.2 | 0.00 | 0.00 | 0.00 | 52 | 1022.0 |
| 20260503070535 | 15 | 192 | 0.0 | 3.2 | 0.00 | 0.00 | 0.00 | 51 | 1022.1 |
| 20260503055034 | 15 | 193 | 3.2 | 4.8 | 0.00 | 0.00 | 0.00 | 49 | 1022.1 |
| 20260503054538 | 15 | 193 | 1.6 | 3.2 | 0.00 | 0.00 | 0.00 | 49 | 1022.4 |
| 20260503054035 | 15 | 193 | 0.0 | 9.7 | 0.00 | 0.00 | 0.00 | 49 | 1022.3 |
| 20260503053537 | 16 | 195 | 3.2 | 9.7 | 0.00 | 0.00 | 0.00 | 48 | 1022.4 |
| 20260503053038 | 16 | 185 | 1.6 | 6.4 | 0.00 | 0.00 | 0.00 | 48 | 1022.2 |
| 20260503052534 | 16 | 187 | 1.6 | 6.4 | 0.00 | 0.00 | 0.00 | 47 | 1022.4 |
| 20260503052033 | 16 | 181 | 1.6 | 9.7 | 0.00 | 0.00 | 0.00 | 46 | 1022.3 |
| 20260503051534 | 16 | 189 | 4.8 | 9.7 | 0.00 | 0.00 | 0.00 | 46 | 1022.4 |
| 20260503051033 | 16 | 188 | 3.2 | 8.0 | 0.00 | 0.00 | 0.00 | 45 | 1022.4 |
| 20260503050535 | 17 | 203 | 3.2 | 6.4 | 0.00 | 0.00 | 0.00 | 45 | 1022.5 |
| 20260503050033 | 17 | 216 | 1.6 | 6.4 | 0.00 | 0.00 | 0.00 | 43 | 1022.6 |
| 20260503045036 | 17 | 200 | 3.2 | 14.5 | 0.00 | 0.00 | 0.00 | 42 | 1022.5 |
| 20260503044533 | 17 | 206 | 4.8 | 14.5 | 0.00 | 0.00 | 0.00 | 42 | 1022.5 |
| 20260503044032 | 17 | 188 | 4.8 | 11.3 | 0.00 | 0.00 | 0.00 | 42 | 1022.4 |
| 20260503043532 | 17 | 212 | 4.8 | 11.3 | 0.00 | 0.00 | 0.00 | 43 | 1022.3 |
| 20260503043035 | 17 | 208 | 3.2 | 11.3 | 0.00 | 0.00 | 0.00 | 43 | 1022.3 |
| 20260503042532 | 17 | 218 | 3.2 | 11.3 | 0.00 | 0.00 | 0.00 | 43 | 1022.4 |
| 20260503042032 | 17 | 220 | 3.2 | 9.7 | 0.00 | 0.00 | 0.00 | 43 | 1022.2 |
| 20260503041532 | 17 | 216 | 3.2 | 9.7 | 0.00 | 0.00 | 0.00 | 43 | 1022.2 |
| 20260503041031 | 17 | 210 | 3.2 | 8.0 | 0.00 | 0.00 | 0.00 | 44 | 1022.4 |
| 20260503040531 | 17 | 217 | 3.2 | 6.4 | 0.00 | 0.00 | 0.00 | 44 | 1022.3 |
| 20260503040039 | 17 | 231 | 3.2 | 9.7 | 0.00 | 0.00 | 0.00 | 44 | 1022.3 |